Retour au catalogue

TANSEI 3 DEB

ActifUNKNOWN
NORAD 9843·DEBRIS·🇯🇵 Japan

Lancé Feb 19, 1977 depuis Uchinoura Space Center

Loading…

Prochains Passages (prochaines 24 heures)

TLE

FraisSource: Space-Track

Époque: Sep 13, 2026, 08:55 UTC

1 09843U 77012C   26256.37193102  .00000058  00000-0  26601-3 0  9999
2 09843  65.7545  34.6404 1731287 243.0546  98.3424 10.74913803944094

Suivez TANSEI 3 DEB en temps réel avec AllMySat

Download on the App Store